Погода в Урзуфе

Украина / Донецкая область     46°54′55″N   37°05′55″E
темп.,
°C
ветер,
м/с
пор.,
м/с
влажн.,
%
обл.,
%
осадки,
мм/ч
давл.,
гПа
погр.,
м
21 января, чт
чт2123:00−13св23880 0.0 102928
02:00−12всв349313 0.0 102843
05:00−11всв349630 0.0 102967
08:00−8в469661 0.1 1029139
11:00−4юв579295 0.1 1029340
14:00−4вюв469396 0.1 1027274
17:00−2юв369699 0.0 1027167
20:000юв239699 0.0 102677
22 января, пт
пт2223:00+1ююв229886 0.0 102524
02:00+2юз369569 0.0 1025147
05:00+3юз41095100 0.0 1024238
08:00+3ююз3798100 0.0 1024156
11:00+4ююз4109954 0.0 1024300
14:00+5ююз4119649 0.0 1023381
17:00+4ююз4119282 0.0 1022286
20:00+4ююз4119283 0.0 1022292
23 января, сб
сб2323:00+4ююз51391100 0.0 1022303
02:00+4ююз41290100 0.0 1021326
05:00+4ююз369199 0.3 1021124
08:00+4ю4109199 0.3 1021259
11:00+5ю5128998 0.0 1020337
14:00+6ю5118698 0.0 1019439
17:00+5ююв4119096 0.0 1019252
20:00+5ю4119098 0.0 1019300
24 января, вс
вс2423:00+5ююв379399 0.0 1019162
02:00+4юв4691100 0.0 1018122
05:00+3юв4686100 0.0 101799
08:00+3вюв4780100 0.0 1017149
11:00+5вюв6967100 0.0 1016346
14:00+5вюв61067100 0.0 1015403
17:00+4вюв51077100 0.0 1015248
20:00+3вюв4883100 0.0 1015155
25 января, пн
пн2523:00+3вюв4688100 0.0 101597
02:00+4юв3494100 0.1 101580
05:00+5юв4695100 2.4 1014165
08:00+5юв4987100 2.4 1014245
11:00+8юв5975100 0.0 1014383
14:00+6вюв5778100 0.0 1012298
17:00+5вюв61282100 0.0 1011301
20:00+6юв71567100 0.0 1010443